Regional Weather Roundup
Issued by NWS

Home | Current Version | Previous Version | Text Only | Print | Product List | Glossary Off
Versions: 1 2 3 4 5 6 7 8 9 10 11 12 13 14 15 16 17 18 19 20 21 22 23 24 25 26 27 28 29 30 31 32 33 34 35 36 37 38 39 40 41 42 43 44 45 46 47 48 49 50

794
ASUS45 KSLC 211810
RWRUT

UTAH REGIONAL WEATHER ROUNDUP
NATIONAL WEATHER SERVICE SALT LAKE CITY UT
1200 PM MDT MON AUG 21 2017

UTZ001>011-023>025-211900-

NORTHERN UTAH

CITY           SKY/WX    TMP DP  RH WIND       PRES   REMARKS
BRIGHAM CITY   SUNNY     76  39  26 CALM      30.15S
DUGWAY         MOSUNNY   79  37  22 SW3       30.14R
HILL AFB       SUNNY     74  42  30 E3        30.18R
LOGAN          SUNNY     70  38  31 SW3       30.17F
OGDEN          SUNNY     75  46  35 CALM      30.14S
SALT LAKE CITY MOSUNNY   82  44  26 N6        30.13R
TOOELE VALLEY  SUNNY     77  50  38 N6        30.15S
WENDOVER       SUNNY     78  37  22 CALM      30.15R
HEBER CITY     SUNNY     64  50  59 CALM      30.21F
WEST JORDAN    SUNNY     77  53  42 CALM      30.17R

$$

UTZ011>015-024>027-211900-

CENTRAL/NORTHEAST UTAH

CITY           SKY/WX    TMP DP  RH WIND       PRES   REMARKS
PROVO AIRPORT  SUNNY     75  55  49 CALM      30.16S
MOAB/CANYONLAN SUNNY     85  43  22 MISG      30.10S
DELTA          SUNNY     77  43  29 W6        30.17S
PRICE          MOSUNNY   77  43  29 SE3       30.21S
RICHFIELD      SUNNY     70  52  52 CALM      30.22S
ROOSEVELT      SUNNY     77  41  27 CALM      30.19F
VERNAL         SUNNY     73  45  36 CALM      30.18S

$$

UTZ013>016-019>022-027-211900-

SOUTHERN UTAH

CITY           SKY/WX    TMP DP  RH WIND       PRES   REMARKS
BRYCE CANYON   CLOUDY    65  45  48 W10       30.38S
CEDAR CITY     LGT RAIN  66  50  56 SW13      30.25F
MILFORD        PTSUNNY   76  47  35 S13       30.20R
ST GEORGE      CLOUDY    77  52  41 SW5       30.11F
HANKSVILLE     SUNNY     82  36  18 CALM      30.13S
KANAB          PTSUNNY   75  52  43 S8        30.25S
BLANDING       SUNNY     72  48  43 S3        30.31S

$$

REGIONAL REPORTS     COLORADO/ARIZONA

CITY           SKY/WX    TMP DP  RH WIND       PRES   REMARKS
CRAIG, CO      SUNNY     70  41  34 CALM      30.25F
GRAND JUNCTION SUNNY     80  44  27 W5        30.14F
RIFLE, CO      SUNNY     76  40  27 CALM      30.18F
MONTROSE, CO   SUNNY     74  47  38 NW5       30.22F
CORTEZ, CO     SUNNY     71  50  47 S6        30.24F
COLORADO CITY  MOCLDY    73  52  46 NW8       30.24S
PAGE, AZ       MOSUNNY   83  46  27 VRB5      30.13S
GRAND CANYON   PTSUNNY   68  53  58 CALM      30.33S
KINGMAN, AZ    LGT RAIN  69  64  84 NE9       30.16F
FLAGSTAFF, AZ  PTSUNNY   68  49  50 SE3       30.36R

$$

REGIONAL REPORTS    NEVADA/IDAHO/WYOMING

CITY           SKY/WX    TMP DP  RH WIND       PRES   REMARKS
LAS VEGAS, NV  CLOUDY    79  61  53 NE13      30.10R
ELY, NY        SUNNY     76  35  22 CALM      30.27S
ELKO, NV       SUNNY     74  34  23 E3        30.20S
POCATELLO, ID  SUNNY     67  33  28 W5        30.20S
BURLEY, ID     SUNNY     66  43  43 NW3       30.17S
FORT BRIDGER,  CLEAR     72  34  25 NE5       30.34F
EVANSTON, WY   SUNNY     70  41  34 N6        30.32S
ROCK SPRINGS,  SUNNY     67  38  34 N5        30.29F
KEMMERER, WY     N/A     64  32  29 W6        30.33F

$$




USA.gov is the U.S. government's official web portal to all federal, state and local government web resources and services.